TimeMST,TemperatureF,Dew PointF,Humidity,Sea Level PressureIn,VisibilityMPH,Wind Direction,Wind SpeedMPH,Gust SpeedMPH,PrecipitationIn,Events,Conditions,WindDirDegrees,DateUTC
12:52 AM,10.0,6.1,84,30.33,10.0,SW,6.9,-,N/A,,Clear,220,2013-02-01 07:52:00
1:52 AM,9.0,5.0,84,30.33,10.0,West,4.6,-,N/A,,Clear,270,2013-02-01 08:52:00
2:52 AM,7.0,3.9,87,30.32,10.0,NW,3.5,-,N/A,,Clear,310,2013-02-01 09:52:00
3:52 AM,5.0,-0.0,80,30.32,10.0,SW,3.5,-,N/A,,Clear,220,2013-02-01 10:52:00
4:52 AM,5.0,1.0,84,30.34,10.0,SW,4.6,-,N/A,,Clear,230,2013-02-01 11:52:00
5:52 AM,3.9,-0.9,80,30.40,10.0,WSW,3.5,-,N/A,,Clear,250,2013-02-01 12:52:00
6:52 AM,3.0,-2.0,80,30.45,10.0,WSW,4.6,-,N/A,,Clear,240,2013-02-01 13:52:00
7:52 AM,7.0,3.0,84,30.43,10.0,Calm,Calm,-,N/A,,Clear,0,2013-02-01 14:52:00
8:52 AM,16.0,10.0,77,30.41,10.0,Calm,Calm,-,N/A,,Clear,0,2013-02-01 15:52:00
9:52 AM,23.0,14.0,68,30.37,10.0,Calm,Calm,-,N/A,,Clear,0,2013-02-01 16:52:00
10:52 AM,27.0,15.1,61,30.34,10.0,Calm,Calm,-,N/A,,Clear,0,2013-02-01 17:52:00
11:52 AM,30.9,16.0,54,30.33,10.0,WSW,3.5,-,N/A,,Clear,240,2013-02-01 18:52:00
12:52 PM,34.0,16.0,48,30.30,10.0,Calm,Calm,-,N/A,,Clear,0,2013-02-01 19:52:00
1:52 PM,37.0,15.1,41,30.26,10.0,Calm,Calm,-,N/A,,Clear,0,2013-02-01 20:52:00
2:52 PM,39.9,12.9,33,30.25,10.0,Calm,Calm,-,N/A,,Clear,0,2013-02-01 21:52:00
3:52 PM,39.0,15.1,38,30.27,10.0,East,5.8,-,N/A,,Clear,80,2013-02-01 22:52:00
4:52 PM,37.0,15.1,41,30.29,10.0,NE,5.8,-,N/A,,Clear,50,2013-02-01 23:52:00
5:52 PM,32.0,15.8,51,30.19,10.0,North,3.5,-,N/A,,Clear,360,2013-02-02 00:52:00
6:52 PM,25.0,17.1,72,30.42,10.0,North,6.9,-,N/A,,Clear,350,2013-02-02 01:52:00
7:52 PM,19.9,15.1,81,30.44,10.0,NNW,4.6,-,N/A,,Clear,330,2013-02-02 02:52:00
8:52 PM,14.0,9.0,80,30.45,10.0,WNW,5.8,-,N/A,,Clear,290,2013-02-02 03:52:00
9:52 PM,12.0,8.1,84,30.44,10.0,West,9.2,-,N/A,,Clear,260,2013-02-02 04:52:00
10:52 PM,12.9,8.1,81,30.42,10.0,West,6.9,-,N/A,,Clear,280,2013-02-02 05:52:00
11:52 PM,10.9,7.0,84,30.43,10.0,West,5.8,-,N/A,,Clear,270,2013-02-02 06:52:00